296  
ASUS46 KPDT 070125  
RWRPDT  
PENDLETON REGIONAL WEATHER ROUNDUP  
NATIONAL WEATHER SERVICE PENDLETON OREGON  
600 PM PDT MON APR 6 2020  
 
NOTE: FAIR INDICATES FEW OR NO CLOUDS BELOW 12,000 FEET WITH NO  
SIGNIFICANT WEATHER AND/OR S TO VISIBILITY
.  
 
# INDICATES UNOFFICIAL STATION AND DATA  
 
WAZ520-070210-  
EAST SLOPES OF WASHINGTON CASCADES  
 
CITY SKY/WX TMP DP RH WIND PRES REMARKS
 
#BULLFROG N/A 54 29 38 W8 N/A  
#EASTON DOT N/A N/A N/A N/A CALM N/A  
#ELK HTS DOT N/A 53 53 100 SW3 N/A  
#GLENWOOD N/A 58 36 44 SW2 29.91R  
#NELSON 3SW N/A 46 28 49 CALM 30.13R  
#NILE N/A 55 33 43 W6 29.18R  
#TROUT LAKE 1NE N/A 55 37 51 W10 29.93R  
#TROUT LAKE 1E N/A 55 36 49 SW1 29.93R  

 
 
WAZ521-070210-  
SIMCOE HIGHLANDS  
 
CITY SKY/WX TMP DP RH WIND PRES REMARKS
 
#SATUS PASS DOT N/A 54 23 30 N2 N/A  
#CENTERVILLE 1SWN/A 54 38 55 W18 29.88R  
#LYLE 6NE N/A 55 41 59 SW18G26 29.92R  
#PITT 4SE N/A 51 39 63 W17G26 29.93S  

 
 
WAZ026-070210-  
KITTITAS VALLEY  
 
CITY SKY/WX TMP DP RH WIND PRES REMARKS
 
ELLENSBURG AP FAIR 58 27 30 NW25G31 29.85R  
#ELLENSBURG 3NE N/A 55 31 40 N13 27.94R  
#ELLENSBURG 1E N/A 56 31 38 N5 29.90R  
#KITTITAS 3S N/A 57 32 38 W16G30 29.86R  
#MANASTASH RDG N/A 53 26 35 CALM N/A  
#ROCKY CYN DOT N/A 57 28 33 NW20G29 N/A  
#RYEGRASS DOT N/A 54 18 24 W31 N/A  
#THORP 6N N/A 55 33 43 CALM 29.83S  

 
 
WAZ027-070210-  
YAKIMA VALLEY  
 
CITY SKY/WX TMP DP RH WIND PRES REMARKS
 
SUNNYSIDE AP FAIR 65 36 34 E5 29.84R  
YAKIMA AIRPORT FAIR 66 28 24 W10 29.84R  
#MABTON N/A 66 42 42 E1 29.83S  
#NACHES 2SW N/A 60 34 37 SW8 29.85S  
#OUTLOOK DOT N/A 67 29 24 CALM 29.80S  
#PARKER DOT N/A 68 30 24 NE5 29.82S  
#TERRACE HTS N/A 66 33 29 NW3 29.83R  
#TOPPENISH N/A 66 34 30 CALM 29.75S  
#I82 S UMTANUM RN/A 59 25 27 N9 N/A  
#ZILLAH DOT N/A 66 26 22 W3 N/A  

 
 
WAZ028-070210-  
LOWER COLUMBIA BASIN...WASHINGTON  
 
CITY SKY/WX TMP DP RH WIND PRES REMARKS
 
PASCO PTCLDY 68 35 29 SW10 29.85S  
PROSSER AWOS N/A 64 36 35 CALM 29.87R  
RICHLAND AWOS PTCLDY 67 35 30 S12 29.84S  
#BASIN CITY 5SW N/A 67 35 30 CALM 29.83S  
#BENTON CITY N/A 65 37 35 SW2 29.74S  
#CONNELL 5N N/A 63 39 41 S3 29.86S  
#CONNELL 5NW N/A 60 40 47 N5 29.81R  
#ELTOPIA 6NW N/A 65 38 37 CALM 28.82R  
#KAHLOTUS N/A 59 36 42 NW9 29.85S  
#KENNEWICK 3S N/A 65 38 37 SE2 29.85S  
#PROSSER DOT N/A 66 34 30 SE3 29.85S  
#SAGEMOOR 2W N/A 63 44 50 CALM 29.70R  
#TOUCHET 2S N/A 65 42 43 SW2 29.83S  

 
 
WAZ029-070210-  
FOOTHILLS OF THE BLUES...WASHINGTON  
 
CITY SKY/WX TMP DP RH WIND PRES REMARKS
 
WALLA WALLA AP FAIR 60 38 44 W5 29.86S  
#CLYDE 6NW N/A 60 37 42 SW13 29.85S  
#DELANEY DOT N/A 62 34 35 S6 29.87S  
#LOWDEN 2SE N/A 64 41 43 W1 29.82S  
#PRESCOTT N/A 65 37 35 W1 29.84F  
#WALLA WALLA 5E N/A 61 45 56 SE6 N/A  
#WHITMAN MISSIONN/A 64 41 43 W2 29.82S  

 
 
WAZ030-070210-  
BLUE MOUNTAINS...WASHINGTON  
 
CITY SKY/WX TMP DP RH WIND PRES REMARKS
 
#DIXIE 5SE N/A 51 38 61 SW8 29.79S  

 
 
ORZ009-041-WAZ024-070210-  
COLUMBIA RIVER GORGE  
 
CITY SKY/WX TMP DP RH WIND PRES REMARKS
 
HOOD RIVER AP FAIR 59 36 42 W6 29.94R  
THE DALLES AP FAIR 63 36 36 W18 29.90R  
#CELILO DOT N/A 62 34 35 SW10 N/A  
#LYLE N/A 61 41 48 W15G24 29.92R  
#MARYHILL N/A 60 36 41 N17G28 N/A  
#RUFUS DOT N/A 63 37 38 W20G28 N/A  
 

 
 
ORZ510-070210-  
NORTH CENTRAL OREGON  
 
CITY SKY/WX TMP DP RH WIND PRES REMARKS
 
#ANTELOPE N/A 56 38 51 CALM 29.79R  
#COW CYN RST AREN/A 53 34 48 W7 N/A  
#DUFUR N/A 56 37 49 W12 29.89R  
#DUFUR 9E N/A 53 35 50 W18G26 29.98R  
#GRASS VALLEY 1SN/A 55 37 51 CALM 29.88R  
#KENT DOT N/A 55 27 34 W3 N/A  
#SHANIKO 5WSW N/A 52 34 50 W8 N/A  
#TYGH VALLEY 2NEN/A 59 38 45 N7 29.89R  
#WAPANITIA AIRPON/A 55 37 51 W13 29.93S  
#WASCO DOT N/A 59 34 39 W15G28 N/A  
#WASCO 5NE N/A 57 37 47 W17G25 29.89R  

 
 
ORZ511-070210-  
CENTRAL OREGON  
 
CITY SKY/WX TMP DP RH WIND PRES REMARKS
 
BEND AIRPORT MOSUNNY 55 34 45 N8 29.90R  
MADRAS AIRPORT FAIR 52 34 50 NW15 29.94R  
PRINEVILLE AP FAIR 55 34 45 N10 29.91R  
REDMOND AIRPORT FAIR 57 35 43 N9 29.90R  
#ASHWOOD SCHOOL N/A 56 38 51 NW3 29.87R  
#BEND-KIM LN N/A 55 38 53 NW7 29.86R  
#CULVER N/A 55 37 51 NW7 29.45R  
#PRINEVILLE N/A 57 37 47 NW1 29.98R  
#WARM SPRINGS N/A 57 36 45 CALM 29.77R  
 

 
 
 
ORZ509-070210-  
EAST SLOPES OF OREGON CASCADES  
 
CITY SKY/WX TMP DP RH WIND PRES REMARKS
 
SISTERS AWOS N/A 54 37 52 W15 29.89S  
SUNRIVER AWOS FAIR 50 34 54 N8 29.95R  
#BLUE BOX PASS N/A 42 N/A N/A NW2 N/A  
#CAMP SHERMAN N/A 51 32 48 N1 30.01R  
#LAVA BUTTE DOT N/A 51 27 39 W1 N/A  
#SISTERS ODOT N/A 53 34 48 W7 N/A  
#TUMALO 3W N/A 53 36 52 NW7 29.78R  
#WANOGA BUTTE D N/A 40 31 70 NE5 N/A  
 

 
 
ORZ044-070210-  
LOWER COLUMBIA BASIN...OREGON  
 
CITY SKY/WX TMP DP RH WIND PRES REMARKS
 
HERMISTON FAIR 66 33 29 SW13 29.85R  
#BOARDMAN SCHOOLN/A 65 37 35 SW9 29.80S  
#UMATILLA N/A 68 39 35 SW3 29.77S  

 
 
ORZ507-070210-  
NORTHERN FOOTHILLS OF THE BLUES  
 
CITY SKY/WX TMP DP RH WIND PRES REMARKS
 
PENDLETON AIRPT MOSUNNY 63 31 30 W13 29.86S  
#ADAMS 3WNW N/A 60 39 46 W3 29.86S  
#ATHENA N/A 59 39 47 W3 29.90S  
#CAYUSE N/A 60 40 47 W7 29.86R  
#HELIX SCHOOL N/A 60 37 42 N3 29.87S  
#HELIX 3N N/A 58 37 45 W12 29.89R  
#HOLDMAN 6E N/A 60 38 44 W8 29.67S  
#M-FREEWATER 5SEN/A 61 42 50 NW5 29.86S  
#PDT AQUATIC CTRN/A 63 35 35 W7 29.93F  
#PDT SUNRIDGE N/A 63 38 39 W6 29.87S  
#PENDLETON 6SE N/A 62 39 43 W5 29.83R  
#TUTUILLA N/A 59 36 42 W7 29.92R  
#UMAPINE 2E N/A 63 43 48 W1 29.85S  
#WESTON SCHOOL N/A 57 35 43 W2 29.65S  
 

 
 
ORZ508-070210-  
SOUTHERN FOOTHILLS OF THE BLUES  
 
CITY SKY/WX TMP DP RH WIND PRES REMARKS
 
#HEPPNER EOC N/A 58 38 47 W2 29.82R  
#HEPPNER 4NE N/A 55 37 51 SW5 29.89R  
#OLEX 4N N/A 60 38 44 W17G26 29.87R  
#RUGGS 2SW N/A 56 37 49 NW8 29.91S  
 

 
 
ORZ502-503-070210-  
BLUE MOUNTAINS  
 
CITY SKY/WX TMP DP RH WIND PRES REMARKS
 
MEACHAM PTCLDY 48 33 56 VRB3 29.90R  
#BATTLE MTN DOT N/A 49 28 44 CALM N/A  
#LADD CYN SMT N/A 54 33 45 NW12 N/A  
#N POWDER DOT N/A 57 33 40 N14 N/A  
#TOLLGATE N/A 41 33 73 CALM 29.93S  
#TROY SCHOOL N/A 61 36 39 W3 29.68R  
#WESTON 4E N/A 51 38 61 CALM 29.87R  

 
 
ORZ505-070210-  
JOHN DAY BASIN  
 
CITY SKY/WX TMP DP RH WIND PRES REMARKS
 
JOHN DAY FAIR 56 34 43 NW6 29.89R  
#DAYVILLE SCHOOLN/A 60 39 46 NE1 29.84R  
#MITCHELL 8NW N/A 52 36 54 CALM 29.94R  

 
 
ORZ506-070210-  
OCHOCO AND JOHN DAY HIGHLANDS  
 
CITY SKY/WX TMP DP RH WIND PRES REMARKS
 
#BUCK CREEK DOT N/A 54 29 38 S7 N/A  
#HORSE RIDGE DO N/A 51 30 44 N10 N/A  
#KEYES SMT DOT N/A 49 30 48 W6 N/A  
#PAULINA ODOT N/A 56 N/A N/A N6 N/A  
#PRAIRIE CITY N/A 55 34 45 CALM 29.82R  
#SENECA 9NW N/A 51 34 52 CALM 29.89R  

 
 
ORZ049-070210-  
GRANDE RONDE VALLEY  
 
CITY SKY/WX TMP DP RH WIND PRES REMARKS
 
LA GRANDE FAIR 58 33 39 NW12 29.87R  
#COVE SCHOOL N/A 58 37 45 SW1 29.88R  
#COVE 6NW N/A 58 36 44 NW5 29.87R  
#ISLAND CITY 4N N/A 62 47 58 CALM 29.97R  
#LADD CYN DOT N/A 57 36 45 N10 N/A  
#UNION 1S N/A 58 36 44 NE3 29.86R  

 
 
ORZ050-070210-  
WALLOWA COUNTY  
 
CITY SKY/WX TMP DP RH WIND PRES REMARKS
 
#ENTERPRISE HS N/A 54 37 52 NW8 29.74R  
#IMNAHA SCHOOL N/A 62 35 36 NW1 29.83R  
#IMNAHA 10S N/A 53 34 48 CALM 29.93S  
#JOSEPH 3N N/A 52 33 48 N6 29.90S  
#LOSTINE N/A 55 37 51 E7 29.67R  
#LOSTINE 3SE N/A 52 33 48 E12 N/A  
#MT HOWARD 8000 N/A 34 28 78 W2 29.88R  
#WALLOWA LAKE N/A 45 38 76 CALM 29.91R  
#WALLOWA SCHOOL N/A 55 35 47 W2 29.88R  
 

 
 
CLICK HERE TO GO TO PREVIOUS BULLETINS.

The Nexlab OR Page
The Nexlab WA Page Main Text Page